Skip Page Navigation
NASA JPL Caltech
NASA Logo - Jet Propulsion Laboratory + View the NASA Portal
+ Center for Near-Earth Object Studies
JPL Home Earth Solar System Stars & Galaxies Technology
JPL Solar System Dynamics
BODIES ORBITS EPHEMERIDES TOOLS PHYSICAL DATA DISCOVERY FAQ SITE MAP
IMPORTANT: The SSD Announcement email list is now available. Major changes are coming in the near future, including possible hostname and/or URL changes. To be notified of such changes, subscribe to this email list.

Please visit this page for more details.


JPL Small-Body Database Browser
Search: [ help ]  
379096 (2008 YD)
Classification: Main-belt Asteroid          SPK-ID: 2379096
Ephemeris | Orbit Diagram | Orbital Elements | Mission Design | Physical Parameters | Discovery Circumstances | Close-Approach Data ]

[ show orbit diagram ]
Orbital Elements at Epoch 2459000.5 (2020-May-31.0) TDB
Reference: JPL 17 (heliocentric ecliptic J2000)
 Element Value Uncertainty (1-sigma)   Units 
e .1766009655170143 7.4096e-08  
a 3.028067794249567 4.1526e-08 au
q 2.493308098134117 2.3701e-07 au
i 12.40177595870277 7.2233e-06 deg
node 74.81457214954865 3.8145e-05 deg
peri 299.465378685089 4.4049e-05 deg
M 97.46849506181387 2.1308e-05 deg
tp 2458479.414992584316
(2018-Dec-26.91499258)
0.00011051 TDB
period 1924.628081624502
5.27
3.9591e-05
1.084e-07
d
yr
n .1870491257179093 3.8477e-09 deg/d
Q 3.562827490365016 4.886e-08 au
  Orbit Determination Parameters
   # obs. used (total)      160  
   data-arc span      6775 days (18.55 yr)  
   first obs. used      2001-06-16  
   last obs. used      2020-01-03  
   planetary ephem.      DE431  
   SB-pert. ephem.      SB431-N16  
   condition code      0  
   norm. resid. RMS      .55145  
   source      ORB  
   producer      Otto Matic  
   solution date      2020-Jan-30 09:34:40  

Additional Information
 Earth MOID = 1.52337 au 
 Jupiter MOID = 1.99252 au 
 T_jup = 3.185 
[ show covariance matrix ]

Ephemeris | Orbit Diagram | Orbital Elements | Mission Design | Physical Parameters | Discovery Circumstances | Close-Approach Data ]

Physical Parameter Table
Parameter Symbol Value Units Sigma Reference Notes
absolute magnitude H 15.8   n/a MPO418927  

379096 (2008 YD)          Discovered 2008-Oct-10 by Mt. Lemmon Survey at Mount Lemmon
Reference: Last Updated: 2013-11-20

[ show close-approach data ]
Ephemeris | Orbit Diagram | Orbital Elements | Mission Design | Physical Parameters | Discovery Circumstances | Close-Approach Data ]
ABOUT SSD CREDITS/AWARDS PRIVACY/COPYRIGHT GLOSSARY LINKS
FirstGov 2020-Feb-26 05:17 UT
(server date/time)  
NASA Home Page
Site Manager:   Ryan S. Park
Webmaster  Alan B. Chamberlin